Tracking 29892 objects as of 21-Nov-2024
HD Live streaming from Space Station
objects crossing your sky now

STARLINK-3943

Track STARLINK-3943 now!
10-day predictions
STARLINK-3943 is classified as:


NORAD ID: 52557
Int'l Code: 2022-051AA
Perigee: 546.1 km
Apogee: 547.7 km
Inclination: 53.2 °
Period: 95.4 minutes
Semi major axis: 6917 km
RCS: Unknown
Launch date: May 13, 2022
Source: United States (US)
Launch site: AIR FORCE WESTERN TEST RANGE (AFWTR)
Your satellite tracking list
Your tracking list is empty




NASA's NSSDC Master Catalog

Two Line Element Set (TLE):
1 52557U 22051AA  24325.76973562  .00000598  00000-0  55644-4 0  9995
2 52557  53.2173  96.6280 0001142  99.6378 260.4743 15.08841481139906
Source of the keplerian elements: AFSPC